Yinhe 1

operational
NORAD ID: 45024 Int'l Des: 2020-004 Owner: YINHE Country: CN Constellation: yinhe
LEOCIRCULARPOLAR

关于 Yinhe 1

正在加载描述...

实时位置

正在加载3D地球...

即将过境

高度历史

Altitude vs Time

uPlot chart will show altitude changes over time

两行轨道根数

1 45024U 20004A 25299.16896495 .00001224 00000-0 16300-3 0 9998
2 45024 86.3973 220.5846 0015959 97.7995 262.5038 14.78715260311333
Epoch: Oct 26, 2025 • Age: 8 hours

当前状态

高度 659.0 km
速度 7.52 km/s
星下点 -43.88°S, 2.21°E
发射日期 Jan 16, 2020
运行时间 5.7 years
类型 other

技术详情

分类 Payload
质量 227.00 kg
干质量 200.00 kg
总质量 227.00 kg
长度 2.00 m
直径 1.00 m
跨度 5.00 m
形状 Box+pan
制造商 YINHE
平台类型 YH
阶段状态 In Orbit
所有者/国家 YINHE/CN

大型星座

Loading constellations...